Location: ????????
(55.6189°N, 38.3031°E)
Time: 12:43:10
(UTC+00:00)

CZ-2C R/B - Pass Details

Date: 15 November 2019
Orbit: 667 x 785 km, 98.1° (Epoch: 15 December)

Event Time Altitude Azimuth Distance (km) Brightness Sun altitude
Rises 02:59:38 0° 12° (NNE) 3,224 5.8 -16.7°
Reaches altitude 10° 03:02:04 10° 6° (N) 2,277 4.9 -16.4°
Maximum altitude 03:06:44 41° 297° (WNW) 1,050 2.7 -15.7°
Drops below altitude 10° 03:11:14 10° 228° (SW) 2,191 4.5 -15.1°
Enters shadow 03:12:40 - 223° (SW) 2,738 5.1 -14.9°
